This is the latest recevied weather packets stored in our database for station/object M0TJX-1. If no packets are shown the sender has not sent any weather packets the latest 1 day(s).
| Time | Temp. | Humidity | Pressure | Rain* | Wind** | Luminosity | Snow |
|---|---|---|---|---|---|---|---|
| 1778021894 | 10° C | 80% | 1013.7 hPa | 0 mm | 0.45 m/s, 24° | - | - |
| 1778020994 | 10° C | 80% | 1013.7 hPa | 0 mm | 0.45 m/s, 355° | - | - |
| 1778020094 | 10° C | 80% | 1013.8 hPa | 0 mm | 0.45 m/s, 63° | - | - |
| 1778019194 | 10.56° C | 80% | 1013.7 hPa | 0 mm | 0.45 m/s, 0° | - | - |
| 1778018294 | 10.56° C | 79% | 1013.9 hPa | 0 mm | 0.45 m/s, 355° | - | - |
| 1778017394 | 10.56° C | 79% | 1013.7 hPa | 0 mm | 0.45 m/s, 21° | - | - |
| 1778016494 | 10.56° C | 80% | 1013.8 hPa | 0 mm | 0 m/s | - | - |
| 1778015594 | 10.56° C | 79% | 1013.8 hPa | 0 mm | 0 m/s | - | - |
| 1778014694 | 10.56° C | 78% | 1013.8 hPa | 0 mm | 0 m/s | - | - |
| 1778013794 | 10.56° C | 78% | 1013.9 hPa | 0 mm | 0 m/s | - | - |
| 1778012894 | 10.56° C | 78% | 1013.8 hPa | 0 mm | 0 m/s | - | - |
| 1778011994 | 10.56° C | 76% | 1013.8 hPa | 0 mm | 0.45 m/s, 9° | - | - |
| 1778011094 | 11.11° C | 75% | 1013.6 hPa | 0 mm | 0.45 m/s, 14° | - | - |
| 1778010194 | 11.67° C | 73% | 1013.5 hPa | 0 mm | 0.45 m/s, 313° | - | - |
| 1778009294 | 11.67° C | 71% | 1013.3 hPa | 0 mm | 0.45 m/s, 27° | - | - |
| 1778008394 | 12.22° C | 70% | 1013.1 hPa | 0 mm | 0.89 m/s, 50° | - | - |
| 1778007494 | 12.78° C | 69% | 1012.9 hPa | 0 mm | 0.89 m/s, 342° | - | - |
| 1778006595 | 12.78° C | 69% | 1013 hPa | 0 mm | 0.89 m/s, 340° | - | - |
| 1778005695 | 12.78° C | 69% | 1012.9 hPa | 0 mm | 0.45 m/s, 63° | - | - |
| 1778004795 | 13.33° C | 66% | 1013 hPa | 0 mm | 0.89 m/s, 280° | - | - |
| 1778003895 | 13.33° C | 66% | 1012.9 hPa | 0 mm | 0.89 m/s, 319° | - | - |
| 1778002995 | 13.89° C | 65% | 1013.1 hPa | 0 mm | 0.89 m/s, 349° | - | - |
| 1778002095 | 13.89° C | 65% | 1013 hPa | 0 mm | 0.89 m/s, 23° | - | - |
| 1778001195 | 13.89° C | 64% | 1012.9 hPa | 0 mm | 0.89 m/s, 0° | - | - |
| 1778000295 | 14.44° C | 63% | 1013.2 hPa | 0 mm | 1.34 m/s, 12° | - | - |
* Rain latest hour (hover to see other rain measurements)
** Current wind speed in m/s (hover to see current wind gust speed)